Simultaneous Nadir Overpasses (SNOs) Predictions

Prediction of SNOs between NOAA-20 and NOAA-19 Satellite Orbit:

Table of predicted SNOs for the next 14.0 days since TLE Epoch: 3/27/2021
Index Date (NOAA-20) Time (NOAA-20) Lat,Lon (NOAA-20) SZA (NOAA-20 ) Date (NOAA-19) Time (NOAA-19) Lat,Lon (NOAA-19) SZA (NOAA-19 ) Distance(km) Time Diff (sec)
1 04/04/2021 00:21:02 -78.48, -32.44 105.90 04/04/2021 00:19:55 -78.50, -32.37 105.86 2.63 67
2 04/04/2021 01:11:48 78.51, 134.74 74.13 04/04/2021 01:10:50 78.49, 134.82 74.13 2.36 58
3 04/04/2021 02:02:32 -78.49, -57.83 105.92 04/04/2021 02:01:55 -78.52, -57.78 105.88 3.66 37
4 04/04/2021 02:53:18 78.51, 109.35 74.10 04/04/2021 02:52:50 78.51, 109.42 74.11 1.44 28
5 04/04/2021 03:44:03 -78.53, -83.44 105.89 04/04/2021 03:43:56 -78.50, -83.42 105.91 3.44 7
6 04/04/2021 04:34:48 78.51, 83.96 74.08 04/04/2021 04:34:50 78.52, 84.01 74.08 1.51 2
7 04/04/2021 05:25:33 -78.53,-108.83 105.91 04/04/2021 05:25:56 -78.51,-108.82 105.94 2.10 23
8 04/04/2021 06:16:18 78.51, 58.57 74.06 04/04/2021 06:16:50 78.53, 58.61 74.06 2.49 32
9 04/04/2021 07:07:03 -78.53,-134.22 105.94 04/04/2021 07:07:56 -78.52,-134.23 105.96 0.81 53
10 04/04/2021 07:57:48 78.51, 33.19 74.03 04/04/2021 07:58:50 78.55, 33.21 74.03 3.71 62



Historial Predications of SNOs between NOAA-20 and NOAA-19
